[[{"header":{"parameterUnit":"m.s-1","parameterCategory":1,"la1":30.2991,"la2":30.254,"lo1":-89.0895,"lo2":-89.0444,"dy":0.0017,"dx":0.0017,"nx":28,"ny":28,"refTime":"2025-04-26T09:00:00:Z","depth":0,"parameterNumber":2,"parameterNumberName":"U-component_of_WINDS"},"data":[0,0,0,0,0,0,0,0,0,0,0,0,0,0,0,0,0,0,0,0,0,0,0,0,0,0,0,0,0,0,0,0,0,0,0,0,0,0,0,0,0,0,0,0,0,0,0,0,0,0,0,0,0,0,0,0,0,0,0.6461,0.6462,0,0.6601,0.6602,0.6604,0.666,0.666,0.6659,0.6659,0.6801,0.6805,0.6809,0,0,0,0,0,0,0,0,0,0,0,0,0,0.624,0.6244,0.646,0.6462,0.6464,0.66,0.6602,0.6604,0.666,0.666,0.6659,0.6659,0.68,0.6805,0.681,0,0,0,0,0,0,0,0,0,0,0,0,0,0.6353,0.6245,0.646,0.6508,0.6514,0.66,0.6602,0.6605,0.666,0.666,0.6659,0.6659,0.6798,0.6804,0.681,0.6858,0,0,0.6829,0.6832,0,0,0,0,0,0,0,0,0.6347,0.6361,0.6499,0.6505,0.6512,0.6612,0.6577,0.669,0.666,0.6605,0.6659,0.6658,0.6739,0.675,0.6777,0.6865,0.6871,0.683,0.6833,0.6836,0.6838,0,0,0,0,0,0,0,0.6339,0.6356,0.6516,0.6501,0.6509,0.6522,0.6538,0.6598,0.6673,0.6609,0.6614,0.663,0.6742,0.6771,0.6781,0.6873,0.6829,0.6835,0.6839,0.6841,0.7007,0.7008,0,0,0,0,0,0,0.6323,0.6349,0.6511,0.652,0.6426,0.6527,0.6544,0.6581,0.6672,0.6686,0.663,0.6632,0.6761,0.6774,0.6786,0.6848,0.6836,0.6842,0.6845,0.7007,0.7008,0.7008,0,0,0,0,0,0,0.6318,0.6337,0.6506,0.6436,0.6458,0.6531,0.6571,0.6584,0.6613,0.6688,0.6701,0.6646,0.6761,0.6777,0.684,0.6854,0.6844,0.685,0.7006,0.7007,0.7008,0.6973,0,0,0,0,0,0,0.6312,0.6335,0.6354,0.6436,0.6462,0.6558,0.6572,0.6587,0.6623,0.6627,0.6706,0.6719,0.6762,0.683,0.6846,0.6862,0.6855,0.7005,0.7006,0.7008,0.6973,0.6973,0.6972,0,0,0,0,0,0.6304,0.6338,0.6355,0.6374,0.6487,0.6558,0.6573,0.6622,0.6624,0.6644,0.6692,0.6717,0.685,0.6836,0.6854,0.6873,0.7004,0.7006,0.7008,0.6973,0.6973,0.6972,0,0,0,0,0,0,0.6256,0.635,0.6369,0.6432,0.6487,0.6568,0.6594,0.662,0.6675,0.6676,0.6733,0.6751,0.6809,0.6847,0.683,0.6924,0.6929,0.6934,0.6897,0.6897,0.6896,0.6886,0.686,0,0,0,0,0,0.6253,0.6303,0.6383,0.643,0.6457,0.652,0.6553,0.6586,0.6645,0.6668,0.6721,0.6777,0.6832,0.6866,0.6921,0.6979,0.6997,0.7001,0.7,0.6999,0.7003,0.7037,0.7039,0.7014,0.7014,0.7014,0,0,0.6247,0.6304,0.6333,0.6422,0.6468,0.6519,0.654,0.6592,0.663,0.6676,0.6739,0.6779,0.6846,0.6906,0.6936,0.694,0.7014,0.7001,0.7,0.7005,0.7039,0.7041,0.7043,0.7015,0.7015,0.7015,0,0,0.6262,0.631,0.6355,0.6402,0.6472,0.6514,0.6525,0.6602,0.6631,0.6695,0.6731,0.6776,0.6869,0.6915,0.695,0.6983,0.7007,0.6999,0.6996,0.7028,0.703,0.7033,0.7044,0.7047,0.7002,0.7002,0.7002,0,0.6245,0.6323,0.6375,0.6426,0.6464,0.6509,0.6554,0.6597,0.668,0.6706,0.6709,0.6827,0.6875,0.6947,0.6955,0.6982,0.6996,0.699,0.7026,0.7029,0.7031,0.7043,0.7047,0.7001,0.7001,0.7001,0.7001,0,0.6299,0.6352,0.638,0.6461,0.6502,0.655,0.6609,0.6644,0.6673,0.6715,0.6779,0.6838,0.6905,0.6925,0.6954,0.7001,0.7002,0.7015,0.7021,0.7031,0.7043,0.7048,0.6999,0.6999,0.7,0.7,0,0,0.6287,0.6397,0.6406,0.6443,0.6524,0.6566,0.6616,0.6682,0.6711,0.6768,0.6811,0.6888,0.6902,0.6942,0.6976,0.7004,0.7026,0.7014,0.7017,0.7014,0.7081,0.707,0.7075,0.7042,0.7044,0.7044,0.7076,0,0.6313,0.6405,0.6453,0.6524,0.6574,0.6617,0.6661,0.6715,0.6755,0.6803,0.6847,0.6901,0.6914,0.6939,0.6969,0.7017,0.704,0.7015,0.7083,0.7084,0.7065,0.7081,0.707,0.7097,0.7081,0.7081,0.7082,0,0.6355,0.6411,0.6487,0.6563,0.6586,0.6624,0.6688,0.6734,0.6796,0.6823,0.6868,0.6902,0.6956,0.6958,0.7032,0.7014,0.7045,0.7073,0.7075,0.7083,0.7084,0.7089,0.7106,0.711,0.709,0.7089,0.7089,0,0.6338,0.6434,0.6492,0.6522,0.6612,0.6638,0.6676,0.6738,0.6774,0.6831,0.6855,0.6916,0.695,0.6997,0.7046,0.7043,0.7116,0.7122,0.714,0.7138,0.7153,0.7151,0.7175,0.7173,0.7172,0.7172,0.7172,0,0.6362,0.6406,0.6486,0.6521,0.6573,0.6628,0.6677,0.6718,0.6773,0.6817,0.6858,0.6898,0.6962,0.701,0.7049,0.7104,0.7119,0.7143,0.7152,0.7139,0.7136,0.716,0.7159,0.7174,0.7173,0.7173,0.7173,0,0.6352,0.6407,0.6473,0.6553,0.6574,0.6608,0.6676,0.6712,0.6754,0.681,0.6826,0.6892,0.6951,0.7005,0.7083,0.7109,0.7166,0.7178,0.7145,0.715,0.7165,0.7163,0.7204,0.7213,0.7204,0.7204,0.7204,0,0.6363,0.6399,0.6483,0.6516,0.6553,0.6606,0.6644,0.6699,0.6737,0.681,0.6837,0.6899,0.6951,0.7043,0.7098,0.7158,0.7172,0.7183,0.7181,0.7167,0.7172,0.717,0.7173,0.7182,0.7182,0.7181,0.7181,0,0.6377,0.6403,0.6457,0.652,0.6564,0.6616,0.6669,0.6694,0.6759,0.6799,0.686,0.6901,0.698,0.7041,0.7107,0.7147,0.7175,0.7181,0.7189,0.7175,0.7154,0.7166,0.7143,0.718,0.718,0.718,0.718,0.718,0.6379,0.6413,0.6477,0.6535,0.6581,0.663,0.6668,0.6715,0.6767,0.6837,0.6867,0.6928,0.6989,0.7081,0.712,0.7169,0.7175,0.7185,0.7188,0.7189,0.7187,0.7146,0.7181,0.7181,0.7181,0.7181,0.7181,0,0.6395,0.6439,0.6492,0.6566,0.6611,0.6634,0.6695,0.6731,0.6785,0.684,0.6891,0.6961,0.702,0.708,0.7142,0.7169,0.7184,0.7184,0.7182,0.7191,0.7178,0.7165,0.7171,0.7171,0.7171,0.7171,0.7171,0.7171,0.6409,0.6467,0.65,0.6582,0.6625,0.6687,0.6719,0.6764,0.6808,0.6885,0.6934,0.6973,0.703,0.7097,0.7152,0.7168,0.7189,0.7185,0.7205,0.7192,0.7192,0.7192,0.7181,0.7189,0.7189,0.7214,0.7214,0.7214]},{"header":{"parameterUnit":"m.s-1","parameterCategory":1,"la1":30.2991,"la2":30.254,"lo1":-89.0895,"lo2":-89.0444,"dy":0.0017,"dx":0.0017,"nx":28,"ny":28,"refTime":"2025-04-26T09:00:00:Z","depth":0,"parameterNumber":3,"parameterNumberName":"V-component_of_WINDS"},"data":[0,0,0,0,0,0,0,0,0,0,0,0,0,0,0,0,0,0,0,0,0,0,0,0,0,0,0,0,0,0,0,0,0,0,0,0,0,0,0,0,0,0,0,0,0,0,0,0,0,0,0,0,0,0,0,0,0,0,2.5956,2.5956,0,2.5948,2.5948,2.5948,2.5909,2.5908,2.5907,2.5906,2.5899,2.5899,2.59,0,0,0,0,0,0,0,0,0,0,0,0,0,2.5937,2.5938,2.5956,2.5956,2.5956,2.5948,2.5948,2.5948,2.5909,2.5908,2.5907,2.5906,2.5898,2.5899,2.59,0,0,0,0,0,0,0,0,0,0,0,0,0,2.5939,2.5938,2.5956,2.5935,2.5933,2.5948,2.5948,2.5948,2.5909,2.5908,2.5906,2.5905,2.5898,2.5899,2.59,2.5934,0,0,2.5903,2.5904,0,0,0,0,0,0,0,0,2.5939,2.594,2.5939,2.5937,2.5935,2.5928,2.5939,2.5943,2.591,2.5918,2.5906,2.5904,2.591,2.591,2.5911,2.5934,2.5934,2.5903,2.5904,2.5904,2.5905,0,0,0,0,0,0,0,2.5939,2.594,2.5953,2.5939,2.5936,2.5927,2.5925,2.594,2.5922,2.5918,2.5915,2.5914,2.5908,2.591,2.5911,2.5934,2.5903,2.5904,2.5905,2.5905,2.5985,2.5986,0,0,0,0,0,0,2.5942,2.594,2.5953,2.5953,2.5933,2.5928,2.5927,2.5932,2.5922,2.5919,2.5915,2.5912,2.5909,2.591,2.591,2.5951,2.5904,2.5905,2.5906,2.5983,2.5985,2.5987,0,0,0,0,0,0,2.5942,2.5943,2.5953,2.5946,2.5946,2.593,2.5936,2.5932,2.5934,2.592,2.5917,2.5921,2.5908,2.5909,2.5929,2.595,2.5906,2.5907,2.5982,2.5984,2.5986,2.6031,0,0,0,0,0,0,2.5941,2.5943,2.5956,2.5946,2.5947,2.5972,2.5937,2.5933,2.5936,2.5932,2.5924,2.5922,2.5907,2.5927,2.593,2.595,2.5907,2.598,2.5983,2.5985,2.6028,2.6035,2.6041,0,0,0,0,0,2.5941,2.5969,2.5957,2.5959,2.5962,2.5973,2.5974,2.5956,2.5938,2.5951,2.5942,2.5922,2.5947,2.593,2.5932,2.5953,2.5978,2.5982,2.5985,2.6025,2.6033,2.604,0,0,0,0,0,0,2.5982,2.5968,2.5954,2.598,2.5978,2.5967,2.5983,2.5966,2.5969,2.5966,2.5944,2.5942,2.5966,2.5961,2.5943,2.5986,2.5959,2.5963,2.5989,2.5997,2.6003,2.6004,2.5908,0,0,0,0,0,2.5994,2.6004,2.5991,2.6015,2.6015,2.5999,2.6003,2.599,2.5987,2.5986,2.5979,2.5977,2.5985,2.599,2.5996,2.6026,2.6025,2.6042,2.6048,2.6054,2.6058,2.6074,2.6082,2.5998,2.5998,2.5998,0,0,2.602,2.6013,2.6021,2.6024,2.6021,2.6032,2.5999,2.6012,2.602,2.5988,2.6007,2.6001,2.5998,2.6024,2.6034,2.6021,2.6081,2.6058,2.6063,2.6064,2.6079,2.6087,2.6094,2.6,2.6,2.5999,0,0,2.6072,2.6068,2.6088,2.6086,2.6081,2.6071,2.6075,2.6066,2.6062,2.608,2.6056,2.6066,2.6079,2.6078,2.6079,2.6131,2.6113,2.6133,2.6167,2.6184,2.619,2.6196,2.6216,2.6223,2.6137,2.6137,2.6137,0,2.6104,2.612,2.61,2.6115,2.6118,2.6089,2.611,2.6108,2.6107,2.6109,2.6093,2.6109,2.6105,2.613,2.6143,2.6145,2.615,2.6135,2.6191,2.6197,2.6202,2.622,2.6228,2.614,2.614,2.6139,2.6139,0,2.6161,2.6172,2.6189,2.6188,2.6192,2.621,2.6193,2.6199,2.6185,2.6176,2.6195,2.6189,2.6194,2.6198,2.6185,2.6222,2.6214,2.6195,2.6167,2.6213,2.623,2.6237,2.6144,2.6143,2.6142,2.6141,0,0,2.624,2.6228,2.6234,2.6234,2.6227,2.6236,2.6252,2.6256,2.6263,2.6262,2.6276,2.6288,2.627,2.6272,2.6258,2.6272,2.6315,2.6251,2.6251,2.6265,2.6357,2.6372,2.638,2.6303,2.6304,2.6305,2.6357,0,2.6291,2.6319,2.6301,2.6332,2.6342,2.6315,2.6329,2.6327,2.6319,2.6327,2.6317,2.6327,2.6302,2.6303,2.6316,2.6307,2.6333,2.6303,2.6316,2.6317,2.6319,2.6389,2.6405,2.6455,2.6364,2.6365,2.6365,0,2.6354,2.6357,2.6389,2.638,2.6384,2.6397,2.64,2.6408,2.6405,2.6398,2.6399,2.6382,2.6398,2.637,2.6392,2.6372,2.6376,2.6372,2.6374,2.6375,2.6345,2.6394,2.647,2.6478,2.6376,2.6375,2.6374,0,2.6411,2.6422,2.6442,2.6443,2.6433,2.6443,2.644,2.6435,2.6439,2.6441,2.6444,2.6448,2.6451,2.6454,2.6439,2.642,2.6463,2.6434,2.6459,2.6459,2.647,2.647,2.655,2.6471,2.6471,2.6471,2.647,0,2.6471,2.6491,2.6468,2.6481,2.6503,2.6483,2.6505,2.6499,2.6495,2.6506,2.6483,2.6494,2.6472,2.6481,2.6468,2.6489,2.649,2.6486,2.6482,2.6489,2.6489,2.6492,2.6489,2.6473,2.6472,2.6472,2.6471,0,2.6538,2.6523,2.6544,2.6533,2.653,2.6548,2.6538,2.655,2.654,2.6555,2.6557,2.6541,2.6551,2.6535,2.6542,2.6534,2.6563,2.6554,2.6565,2.6563,2.6589,2.6587,2.6674,2.6685,2.6598,2.6599,2.66,0,2.6578,2.6593,2.6584,2.659,2.6588,2.6597,2.6601,2.6581,2.6586,2.6584,2.6596,2.6603,2.6608,2.6625,2.6614,2.662,2.6611,2.6641,2.6612,2.6618,2.6614,2.6613,2.6615,2.6648,2.6649,2.665,2.6651,0,2.6651,2.6642,2.6649,2.6653,2.6658,2.666,2.6661,2.6667,2.6646,2.6653,2.6662,2.6666,2.6674,2.6682,2.6685,2.6681,2.6663,2.666,2.6666,2.6673,2.668,2.6678,2.6583,2.6658,2.6657,2.6657,2.6657,2.6656,2.6706,2.6719,2.6715,2.6723,2.6721,2.6722,2.6733,2.6724,2.6731,2.6736,2.6723,2.6736,2.6732,2.6735,2.6733,2.6743,2.673,2.6738,2.6741,2.6744,2.6749,2.6677,2.6743,2.6743,2.6743,2.6742,2.6742,0,2.6779,2.6775,2.6782,2.6784,2.679,2.6772,2.6771,2.6778,2.6789,2.6787,2.6793,2.6804,2.6811,2.6801,2.6807,2.6817,2.6809,2.6819,2.6819,2.6819,2.6759,2.6754,2.6826,2.6826,2.6826,2.6826,2.6826,2.6826,2.6818,2.6839,2.683,2.685,2.6845,2.6857,2.6859,2.686,2.6858,2.6871,2.6878,2.6871,2.6866,2.6871,2.6877,2.6874,2.6878,2.6892,2.6886,2.6831,2.6823,2.6815,2.681,2.6893,2.6893,2.6945,2.6945,2.6946]}]]